Weather History for KBIE - November, 2012

Change the Weather History Date:

Sunday, November 4, 2012

  Actual Average (KLNK) Record (KLNK)
Temperature  
Mean Temperature 52 °F 45 °F  
Max Temperature 66 °F 57 °F 80 °F (1909)
Min Temperature 38 °F 33 °F -4 °F (1991)
Degree Days  
Heating Degree Days 13 20  
Month to date heating degree days 77  
Since 1 July heating degree days 556  
Cooling Degree Days 0 0  
Month to date cooling degree days 0  
Year to date cooling degree days 1173  
Growing Degree Days 2 (Base 50)    
Moisture  
Dew Point 34 °F    
Average Humidity 57    
Maximum Humidity 80    
Minimum Humidity 26    
Precipitation  
Precipitation 0.00 in 0.06 in 0.97 in (1905)
Month to date precipitation 0.23  
Year to date precipitation 26.80  
Snow  
Snow 0.00 in 0.10 in - ()
Month to date snowfall 0.2  
Since 1 July snowfall 0.9  
Snow Depth -    
Sea Level Pressure  
Sea Level Pressure 30.10 in    
Wind  
Wind Speed 5 mph (SW)    
Max Wind Speed 18 mph    
Max Gust Speed 25 mph    
Visibility 10 miles    
Events Rain    
T = Trace of Precipitation, MM = Missing Value Source: NWS Daily Summary

Daily Weather History Graph

Daily Weather History Graph

Search for Another Location

Airport or City:

Trip Planner

Search our weather history database for the weather conditions in past years. The results will help you decide how hot, cold, wet, or windy it might be!

Date:

Astronomy

Nov. 04, 2012 Rise Set
Actual Time 7:00 AM CST 5:19 PM CST
Civil Twilight 6:32 AM CST 5:48 PM CST
Nautical Twilight 5:59 AM CST 6:20 PM CST
Astronomical Twilight 5:28 AM CST 6:52 PM CST
Moon 9:59 PM CST (11/4) 11:45 AM CST (11/4)
Length of Visible Light 11h 16m
Length of Day
10h 19m
Waning Gibbous, 72% of the Moon is Illuminated
Nov 4
Waning Gibbous
Nov 6
Last Quarter
Nov 13
New
Nov 20
First Quarter
Nov 28
Full

Hourly Weather History & Observations

Time (CST) Temp. Windchill Dew Point Humidity Pressure Visibility Wind Dir Wind Speed Gust Speed Precip Events Conditions
12:15 AM 38.3 °F - 31.6 °F 77% 30.18 in 10.0 mi Calm Calm - N/A   Overcast
12:35 AM 40.1 °F - 32.0 °F 73% 30.18 in 10.0 mi Calm Calm - N/A   Overcast
12:55 AM 39.2 °F - 32.2 °F 76% 30.18 in 10.0 mi Calm Calm - N/A   Overcast
1:15 AM 39.7 °F - 32.0 °F 74% 30.18 in 10.0 mi Calm Calm - N/A   Overcast
1:35 AM 39.6 °F - 32.0 °F 74% 30.19 in 10.0 mi Calm Calm - N/A   Mostly Cloudy
1:55 AM 39.6 °F - 32.4 °F 75% 30.18 in 10.0 mi Calm Calm - N/A   Clear
1:15 AM 39.9 °F - 32.2 °F 74% 30.18 in 10.0 mi Calm Calm - N/A   Scattered Clouds
1:35 AM 40.6 °F - 32.5 °F 73% 30.17 in 10.0 mi Calm Calm - N/A   Overcast
1:55 AM 41.2 °F 39.2 °F 32.9 °F 72% 30.17 in 10.0 mi East 3.5 mph - N/A   Overcast
2:15 AM 40.6 °F - 33.3 °F 75% 30.18 in 10.0 mi Calm Calm - N/A   Overcast
2:35 AM 41.5 °F 39.6 °F 33.4 °F 73% 30.18 in 10.0 mi South 3.5 mph - N/A   Overcast
2:55 AM 41.5 °F - 33.8 °F 74% 30.18 in 10.0 mi Calm Calm - N/A   Overcast
3:15 AM 41.7 °F - 33.8 °F 73% 30.18 in 10.0 mi Calm Calm - N/A   Overcast
3:35 AM 41.9 °F 40.0 °F 33.6 °F 72% 30.18 in 10.0 mi East 3.5 mph - N/A   Overcast
3:55 AM 41.5 °F 39.6 °F 33.3 °F 72% 30.17 in 10.0 mi ESE 3.5 mph - N/A   Mostly Cloudy
4:15 AM 41.2 °F 39.2 °F 33.4 °F 74% 30.17 in 10.0 mi East 3.5 mph - N/A   Mostly Cloudy
4:35 AM 41.2 °F 39.2 °F 33.4 °F 74% 30.17 in 10.0 mi ESE 3.5 mph - N/A   Overcast
4:55 AM 41.0 °F 39.0 °F 33.3 °F 74% 30.17 in 10.0 mi ESE 3.5 mph - N/A   Overcast
5:15 AM 41.0 °F 39.0 °F 32.9 °F 73% 30.17 in 10.0 mi SE 3.5 mph - N/A   Scattered Clouds
5:35 AM 39.6 °F 37.4 °F 32.2 °F 75% 30.17 in 10.0 mi SE 3.5 mph - N/A   Scattered Clouds
5:55 AM 39.6 °F 37.4 °F 32.2 °F 75% 30.17 in 10.0 mi SSE 3.5 mph - N/A   Scattered Clouds
6:15 AM 39.7 °F 37.6 °F 32.0 °F 74% 30.16 in 10.0 mi SE 3.5 mph - N/A   Mostly Cloudy
6:35 AM 39.7 °F 36.5 °F 32.0 °F 74% 30.16 in 10.0 mi SE 4.6 mph - N/A   Mostly Cloudy
6:55 AM 40.6 °F 37.5 °F 32.7 °F 73% 30.16 in 10.0 mi SSE 4.6 mph - N/A   Overcast
7:15 AM 41.7 °F 38.0 °F 32.7 °F 70% 30.17 in 10.0 mi SSE 5.8 mph - N/A   Overcast
7:35 AM 42.3 °F 37.9 °F 32.4 °F 68% 30.16 in 10.0 mi SSE 6.9 mph - N/A   Overcast
7:55 AM 41.9 °F 38.2 °F 32.2 °F 68% 30.16 in 10.0 mi SSE 5.8 mph - N/A   Scattered Clouds
8:15 AM 44.1 °F 40.1 °F 32.9 °F 65% 30.16 in 10.0 mi South 6.9 mph - N/A   Clear
8:35 AM 45.9 °F 40.4 °F 32.5 °F 60% 30.16 in 10.0 mi South 11.5 mph - N/A   Clear
8:55 AM 46.9 °F - 32.5 °F 57% 30.15 in 10.0 mi South 10.4 mph - N/A   Clear
9:15 AM 49.1 °F - 32.9 °F 54% 30.14 in 10.0 mi South 10.4 mph - N/A   Clear
9:35 AM 50.9 °F - 33.4 °F 51% 30.13 in 10.0 mi South 10.4 mph - N/A   Clear
9:55 AM 52.9 °F - 33.4 °F 48% 30.12 in 10.0 mi South 12.7 mph - N/A   Clear
10:15 AM 55.2 °F - 33.6 °F 44% 30.12 in 10.0 mi South 12.7 mph - N/A   Clear
10:35 AM 57.2 °F - 33.6 °F 41% 30.11 in 10.0 mi South 12.7 mph - N/A   Clear
10:55 AM 58.6 °F - 33.4 °F 39% 30.10 in 10.0 mi South 15.0 mph 18.4 mph N/A   Clear
11:15 AM 59.2 °F - 33.6 °F 38% 30.09 in 10.0 mi South 12.7 mph - N/A   Clear
11:35 AM 60.8 °F - 33.1 °F 35% 30.07 in 10.0 mi SSW 16.1 mph 23.0 mph N/A   Clear
11:55 AM 61.7 °F - 33.4 °F 35% 30.05 in 10.0 mi South 15.0 mph 21.9 mph N/A   Clear
12:15 PM 63.1 °F - 32.4 °F 32% 30.04 in 10.0 mi South 13.8 mph 23.0 mph N/A   Clear
12:35 PM 63.0 °F - 31.8 °F 31% 30.03 in 10.0 mi SSW 13.8 mph 23.0 mph N/A   Clear
12:55 PM 64.0 °F - 32.0 °F 30% 30.02 in 10.0 mi SSW 16.1 mph 23.0 mph N/A   Clear
1:15 PM 65.3 °F - 31.6 °F 28% 30.00 in 10.0 mi SSW 15.0 mph 20.7 mph N/A   Clear
1:35 PM 65.7 °F - 29.3 °F 26% 30.00 in 10.0 mi SW 13.8 mph 24.2 mph N/A   Clear
1:55 PM 66.0 °F - 30.0 °F 26% 30.00 in 10.0 mi SW 18.4 mph 25.3 mph N/A   Clear
2:15 PM 65.3 °F - 30.4 °F 27% 30.00 in 10.0 mi WSW 15.0 mph 20.7 mph N/A   Scattered Clouds
2:35 PM 64.4 °F - 30.7 °F 28% 30.00 in 10.0 mi WSW 16.1 mph 21.9 mph N/A   Mostly Cloudy
2:55 PM 63.9 °F - 31.3 °F 29% 30.00 in 10.0 mi West 11.5 mph - N/A   Scattered Clouds
3:15 PM 63.9 °F - 31.1 °F 29% 30.00 in 10.0 mi WSW 10.4 mph - N/A   Scattered Clouds
3:35 PM 63.5 °F - 31.1 °F 30% 30.00 in 10.0 mi WSW 9.2 mph - N/A   Mostly Cloudy
3:55 PM 62.2 °F - 31.8 °F 32% 30.01 in 10.0 mi WNW 10.4 mph - N/A   Overcast
4:15 PM 61.0 °F - 32.4 °F 34% 30.01 in 10.0 mi NW 8.1 mph - N/A   Overcast
4:35 PM 60.8 °F - 32.0 °F 34% 30.01 in 10.0 mi WSW 5.8 mph - N/A   Overcast
4:55 PM 59.5 °F - 32.5 °F 36% 30.01 in 10.0 mi West 3.5 mph - N/A   Overcast
5:15 PM 58.8 °F - 33.3 °F 38% 30.02 in 10.0 mi NW 5.8 mph - N/A   Overcast
5:35 PM 57.7 °F - 34.0 °F 41% 30.02 in 10.0 mi North 6.9 mph - N/A   Overcast
5:55 PM 56.3 °F - 35.2 °F 45% 30.02 in 10.0 mi Calm Calm - N/A   Overcast
6:15 PM 56.1 °F - 35.6 °F 46% 30.02 in 10.0 mi SW 4.6 mph - N/A   Overcast
6:35 PM 54.9 °F - 37.0 °F 51% 30.04 in 10.0 mi WNW 4.6 mph - N/A   Overcast
6:55 PM 55.4 °F - 36.1 °F 48% 30.05 in 10.0 mi WNW 6.9 mph - N/A   Overcast
7:15 PM 54.1 °F - 38.3 °F 55% 30.05 in 10.0 mi NNW 8.1 mph - N/A   Light Drizzle
7:35 PM 52.0 °F - 40.3 °F 64% 30.06 in 10.0 mi NNW 11.5 mph - N/A   Light Drizzle
7:55 PM 50.9 °F - 40.5 °F 67% 30.06 in 10.0 mi NW 8.1 mph - N/A Rain Light Rain
8:15 PM 49.6 °F - 41.4 °F 73% 30.05 in 10.0 mi NW 5.8 mph - N/A   Light Drizzle
8:35 PM 49.3 °F - 41.4 °F 74% 30.05 in 10.0 mi Calm Calm - N/A   Overcast
8:55 PM 49.6 °F - 41.2 °F 73% 30.05 in 10.0 mi NW 3.5 mph - N/A   Light Drizzle
9:15 PM 48.6 °F - 42.3 °F 79% 30.04 in 10.0 mi WNW 3.5 mph - N/A   Light Drizzle
9:35 PM 48.4 °F - 41.9 °F 78% 30.05 in 10.0 mi NW 5.8 mph - N/A   Overcast
9:55 PM 48.2 °F - 41.5 °F 78% 30.04 in 10.0 mi NNW 5.8 mph - N/A   Overcast
10:15 PM 47.7 °F - 41.9 °F 80% 30.04 in 10.0 mi NW 4.6 mph - N/A   Overcast
10:35 PM 48.2 °F - 41.2 °F 77% 30.04 in 10.0 mi NW 4.6 mph - N/A   Overcast
10:55 PM 48.2 °F - 40.5 °F 75% 30.05 in 10.0 mi NW 6.9 mph - N/A   Overcast